{"data":{"norad_id":51872,"intl_designator":"2022-022W","name":"STARLINK-3554","alt_names":[],"object_type":"PAYLOAD","status":"ACTIVE","operator":null,"country":"US","launch_date":"2022-03-03","launch_site_code":"AFETR","launch_vehicle":null,"mission":null,"orbit_class":"UNKNOWN","rcs_meters":null,"size_class":null,"mass_kg":null,"dimensions":null,"purposes":["comms"],"wikipedia_slug":null,"has_3d_model":false,"image_url":null,"decayed_at":null,"tle_current":{"epoch":"2026-05-25T01:30:27.303264Z","epoch_age_seconds":73645,"freshness":"FRESH","line1":"1 51872U 22022W   26145.06281601  .00001290  00000+0  99101-4 0  9998","line2":"2 51872  53.2150  26.2683 0001079  80.6924 279.4190 15.08838183234640","mean_motion":15.08838183,"eccentricity":0.0001079,"inclination_deg":53.215,"raan_deg":26.2683,"arg_perigee_deg":80.6924,"mean_anomaly_deg":279.419,"bstar":9.9101e-5,"rev_number":23464,"period_min":95.437669607278,"perigee_km":539.00250291855,"apogee_km":540.495382705,"semimajor_km":6917.8859428118,"source":"CELESTRAK","updated_at":"2026-05-25T13:38:16.982663Z"}}}